Richmond, VA

4:44 PM EDT on June 25, 2017 (GMT -0400)
Richmond International

Weather History for KRIC - May, 2013

Change the Weather History Date:

Saturday, May 11, 2013

  Actual Average Record
Temperature  
Mean Temperature 73 °F 65 °F  
Max Temperature 83 °F 77 °F 92 °F (1916)
Min Temperature 62 °F 53 °F 32 °F (1966)
Degree Days  
Heating Degree Days 0 3  
Month to date heating degree days 42 39  
Since 1 July heating degree days 3647 3731  
Cooling Degree Days 8 3  
Month to date cooling degree days 18 25  
Year to date cooling degree days 84 67  
Growing Degree Days 24 (Base 50)    
Moisture  
Dew Point 62 °F    
Average Humidity 66    
Maximum Humidity 84    
Minimum Humidity 47    
Precipitation  
Precipitation 0.09 in 0.11 in 3.05 in (1981)
Month to date precipitation 1.60 1.23  
Year to date precipitation 17.98 14.34  
Snow  
Snow 0.00 in 0.00 in 0.00 in (2002)
Month to date snowfall 0.0 0.0  
Since 1 July snowfall 8.6 10.3  
Snow Depth 0.00 in    
Sea Level Pressure  
Sea Level Pressure 29.84 in    
Wind  
Wind Speed 10 mph (SSW)    
Max Wind Speed 23 mph    
Max Gust Speed 31 mph    
Visibility 10 miles    
Events Rain    
T = Trace of Precipitation, MM = Missing Value Source: NWS Daily Summary

Daily Weather History Graph

Daily Weather History Graph

Search for Another Location

Airport or City:

Trip Planner

Search our weather history database for the weather conditions in past years. The results will help you decide how hot, cold, wet, or windy it might be!

Date:

Astronomy

May. 11, 2013 Rise Set
Actual Time 6:03 AM EDT 8:08 PM EDT
Civil Twilight 5:34 AM EDT 8:37 PM EDT
Nautical Twilight 4:59 AM EDT 9:12 PM EDT
Astronomical Twilight 4:20 AM EDT 9:51 PM EDT
Moon 7:10 AM EDT (5/11) 9:46 PM EDT (5/11)
Length of Visible Light 15h 02m
Length of Day
14h 05m
Waxing Crescent, 3% of the Moon is Illuminated
May 11
Waxing Crescent
May 18
First Quarter
May 25
Full
May 31
Last Quarter
Jun 8
New

Hourly Weather History & Observations

Time (EDT) Temp. Heat Index Dew Point Humidity Pressure Visibility Wind Dir Wind Speed Gust Speed Precip Events Conditions
12:54 AM 73.0 °F - 60.1 °F 64% 29.94 in 10.0 mi SSW 5.8 mph - N/A   Overcast
1:54 AM 69.1 °F - 62.1 °F 78% 29.93 in 10.0 mi South 4.6 mph - 0.00 in   Overcast
2:54 AM 69.1 °F - 62.1 °F 78% 29.91 in 10.0 mi SSW 6.9 mph - N/A   Overcast
3:54 AM 69.1 °F - 62.1 °F 78% 29.90 in 10.0 mi South 5.8 mph - 0.00 in   Overcast
4:54 AM 68.0 °F - 62.1 °F 81% 29.89 in 10.0 mi South 5.8 mph - N/A   Overcast
5:54 AM 68.0 °F - 62.1 °F 81% 29.88 in 10.0 mi South 8.1 mph - N/A   Overcast
6:54 AM 69.1 °F - 62.1 °F 78% 29.89 in 10.0 mi South 13.8 mph - N/A   Overcast
7:54 AM 70.0 °F - 62.1 °F 76% 29.89 in 10.0 mi South 10.4 mph - N/A   Overcast
8:54 AM 72.0 °F - 62.1 °F 71% 29.88 in 10.0 mi South 12.7 mph - N/A   Mostly Cloudy
9:54 AM 75.2 °F - 62.6 °F 65% 29.85 in 10.0 mi SSW 13.8 mph 19.6 mph N/A   Mostly Cloudy
10:54 AM 79.0 °F - 62.1 °F 56% 29.86 in 10.0 mi SSW 15.0 mph 23.0 mph N/A   Mostly Cloudy
11:54 AM 80.1 °F 81.1 °F 61.0 °F 52% 29.83 in 10.0 mi SW 15.0 mph 20.7 mph N/A   Mostly Cloudy
12:54 PM 81.0 °F 81.7 °F 61.0 °F 50% 29.83 in 10.0 mi SSW 18.4 mph - N/A   Mostly Cloudy
1:54 PM 82.0 °F 82.7 °F 61.0 °F 49% 29.81 in 10.0 mi SW 15.0 mph - N/A   Mostly Cloudy
2:54 PM 81.0 °F 81.3 °F 59.0 °F 47% 29.79 in 10.0 mi WSW 13.8 mph - N/A   Mostly Cloudy
3:54 PM 81.0 °F 81.7 °F 61.0 °F 50% 29.78 in 10.0 mi WSW 10.4 mph - N/A   Overcast
4:54 PM 78.1 °F - 62.1 °F 58% 29.78 in 10.0 mi WSW 13.8 mph - 0.00 in Rain Light Rain
5:54 PM 78.1 °F - 62.1 °F 58% 29.78 in 10.0 mi WSW 8.1 mph - 0.00 in   Mostly Cloudy
6:54 PM 77.0 °F - 61.0 °F 58% 29.77 in 10.0 mi WSW 10.4 mph - N/A   Mostly Cloudy
7:54 PM 73.9 °F - 62.1 °F 66% 29.77 in 10.0 mi SW 6.9 mph - N/A   Mostly Cloudy
8:54 PM 71.1 °F - 64.0 °F 78% 29.77 in 10.0 mi SSW 3.5 mph - N/A   Mostly Cloudy
9:54 PM 70.0 °F - 64.0 °F 81% 29.78 in 10.0 mi South 3.5 mph - N/A   Overcast
10:54 PM 68.0 °F - 57.9 °F 70% 29.81 in 7.0 mi NW 18.4 mph 31.1 mph 0.01 in Rain Light Rain
11:54 PM 63.0 °F - 57.9 °F 84% 29.79 in 10.0 mi Calm Calm - 0.08 in Rain Light Rain